When you browse on this site, cookies collect data to enhance your experience and personalize the content and advertising you see.
Visit our Privacy Policy to learn more. By continuing to use the site, you agree to this use of cookies and data.
  • In Czech Republic
  • List of Countries
  • For 7 days
  • Water Temperature
  • Satellite Maps
  • Weather Map
  • Weather Widgets
  • user-avatar
    Login

    Hourly Weather Wadzhir

    Today, 18 January, Friday

    Time Temperature Precipitation Wind Pressure Humidity
    00:00 +35°C° 0 mm 5 mps 735 mmHg 29%
    01:00 +33°C° 0 mm 6 mps 735 mmHg 39%
    02:00 +32°C° 0 mm 7 mps 735 mmHg 50%
    03:00 +29°C° 0 mm 7 mps 735 mmHg 59%
    04:00 +29°C° 0 mm 7 mps 735 mmHg 61%
    05:00 +28°C° 0 mm 7 mps 735 mmHg 64%
    06:00 +28°C° 0 mm 6 mps 736 mmHg 66%
    07:00 +28°C° 0 mm 6 mps 736 mmHg 62%
    08:00 +29°C° 0 mm 5 mps 737 mmHg 58%
    09:00 +30°C° 0 mm 5 mps 737 mmHg 54%
    10:00 +33°C° 0 mm 4 mps 737 mmHg 47%
    11:00 +34°C° 0 mm 4 mps 737 mmHg 39%
    12:00 +36°C° 0 mm 3 mps 737 mmHg 32%
    13:00 +37°C° 0 mm 3 mps 736 mmHg 29%
    14:00 +38°C° 0 mm 3 mps 735 mmHg 25%
    15:00 +39°C° 0 mm 3 mps 734 mmHg 22%
    16:00 +39°C° 0 mm 3 mps 734 mmHg 21%
    17:00 +39°C° 0 mm 3 mps 733 mmHg 20%
    18:00 +39°C° 0 mm 3 mps 733 mmHg 19%
    19:00 +39°C° 0 mm 3 mps 733 mmHg 20%
    20:00 +38°C° 0 mm 3 mps 734 mmHg 21%
    21:00 +37°C° 0 mm 3 mps 734 mmHg 22%
    22:00 +36°C° 0 mm 4 mps 734 mmHg 22%
    23:00 +36°C° 0 mm 4 mps 735 mmHg 23%

    Tomorrow, 19 January, Saturday

    Time Temperature Precipitation Wind Pressure Humidity
    00:00 +35°C° 0 mm 4 mps 735 mmHg 23%
    01:00 +33°C° 0 mm 5 mps 735 mmHg 36%
    02:00 +30°C° 0 mm 6 mps 735 mmHg 49%
    03:00 +29°C° 0 mm 7 mps 734 mmHg 62%
    04:00 +28°C° 0 mm 6 mps 735 mmHg 63%
    05:00 +28°C° 0 mm 6 mps 735 mmHg 64%
    06:00 +27°C° 0 mm 5 mps 736 mmHg 65%
    07:00 +28°C° 0 mm 5 mps 736 mmHg 61%
    08:00 +29°C° 0 mm 4 mps 737 mmHg 58%
    09:00 +29°C° 0 mm 4 mps 738 mmHg 54%
    10:00 +32°C° 0 mm 4 mps 737 mmHg 47%
    11:00 +34°C° 0 mm 4 mps 737 mmHg 40%
    12:00 +36°C° 0 mm 3 mps 737 mmHg 33%
    13:00 +37°C° 0 mm 3 mps 736 mmHg 29%
    14:00 +38°C° 0 mm 3 mps 735 mmHg 25%
    15:00 +39°C° 0 mm 3 mps 734 mmHg 21%
    16:00 +39°C° 0 mm 3 mps 734 mmHg 20%
    17:00 +39°C° 0 mm 3 mps 734 mmHg 19%
    18:00 +39°C° 0 mm 3 mps 733 mmHg 18%
    19:00 +39°C° 0 mm 3 mps 734 mmHg 19%
    20:00 +38°C° 0 mm 4 mps 735 mmHg 20%
    21:00 +37°C° 0 mm 4 mps 735 mmHg 21%
    22:00 +36°C° 0 mm 4 mps 735 mmHg 22%
    23:00 +36°C° 0 mm 5 mps 736 mmHg 23%

    Day after tomorrow, 20 January, Sunday

    Time Temperature Precipitation Wind Pressure Humidity
    00:00 +35°C° 0 mm 5 mps 736 mmHg 23%
    01:00 +34°C° 0 mm 6 mps 736 mmHg 30%
    02:00 +32°C° 0 mm 6 mps 735 mmHg 37%
    03:00 +30°C° 0 mm 6 mps 735 mmHg 44%
    04:00 +29°C° 0 mm 6 mps 735 mmHg 50%
    05:00 +28°C° 0 mm 6 mps 736 mmHg 56%
    06:00 +27°C° 0 mm 5 mps 736 mmHg 62%
    07:00 +28°C° 0 mm 5 mps 737 mmHg 59%
    08:00 +29°C° 0 mm 5 mps 738 mmHg 56%
    09:00 +29°C° 0 mm 5 mps 738 mmHg 52%
    10:00 +33°C° 0 mm 5 mps 738 mmHg 44%
    11:00 +35°C° 0 mm 5 mps 738 mmHg 36%
    12:00 +37°C° 0 mm 4 mps 737 mmHg 28%
    13:00 +38°C° 0 mm 4 mps 736 mmHg 25%
    14:00 +40°C° 0 mm 4 mps 735 mmHg 22%
    15:00 +41°C° 0 mm 4 mps 734 mmHg 19%
    16:00 +41°C° 0 mm 4 mps 734 mmHg 19%
    17:00 +41°C° 0 mm 4 mps 734 mmHg 18%
    18:00 +41°C° 0 mm 4 mps 734 mmHg 17%
    19:00 +40°C° 0 mm 4 mps 734 mmHg 18%
    20:00 +38°C° 0 mm 4 mps 735 mmHg 19%
    21:00 +37°C° 0 mm 5 mps 735 mmHg 21%
    22:00 +36°C° 0 mm 5 mps 736 mmHg 21%
    23:00 +36°C° 0 mm 4 mps 736 mmHg 21%

    21 January, Monday

    Time Temperature Precipitation Wind Pressure Humidity
    00:00 +35°C° 0 mm 4 mps 736 mmHg 22%
    01:00 +33°C° 0 mm 5 mps 736 mmHg 31%
    02:00 +32°C° 0 mm 5 mps 735 mmHg 39%
    03:00 +30°C° 0 mm 6 mps 735 mmHg 48%
    04:00 +29°C° 0 mm 6 mps 736 mmHg 53%
    05:00 +28°C° 0 mm 6 mps 736 mmHg 59%
    06:00 +28°C° 0 mm 5 mps 737 mmHg 65%
    07:00 +28°C° 0 mm 5 mps 737 mmHg 61%
    08:00 +29°C° 0 mm 5 mps 738 mmHg 56%
    09:00 +30°C° 0 mm 5 mps 739 mmHg 52%
    10:00 +33°C° 0 mm 5 mps 738 mmHg 44%
    11:00 +35°C° 0 mm 5 mps 738 mmHg 36%
    12:00 +37°C° 0 mm 5 mps 737 mmHg 28%
    13:00 +39°C° 0 mm 5 mps 736 mmHg 25%
    14:00 +40°C° 0 mm 5 mps 735 mmHg 23%
    15:00 +41°C° 0 mm 4 mps 734 mmHg 20%
    16:00 +41°C° 0 mm 4 mps 734 mmHg 19%
    17:00 +41°C° 0 mm 5 mps 734 mmHg 18%
    18:00 +41°C° 0 mm 5 mps 734 mmHg 18%
    19:00 +40°C° 0 mm 5 mps 734 mmHg 19%
    20:00 +39°C° 0 mm 5 mps 735 mmHg 19%
    21:00 +37°C° 0 mm 4 mps 736 mmHg 20%
    22:00 +36°C° 0 mm 5 mps 736 mmHg 21%
    23:00 +35°C° 0 mm 5 mps 736 mmHg 22%

    22 January, Tuesday

    Time Temperature Precipitation Wind Pressure Humidity
    00:00 +35°C° 0 mm 5 mps 736 mmHg 22%
    01:00 +33°C° 0 mm 5 mps 736 mmHg 32%
    02:00 +32°C° 0 mm 6 mps 735 mmHg 42%
    03:00 +29°C° 0 mm 7 mps 735 mmHg 52%
    04:00 +28°C° 0 mm 7 mps 735 mmHg 57%
    05:00 +28°C° 0 mm 6 mps 736 mmHg 62%
    06:00 +27°C° 0 mm 6 mps 736 mmHg 67%
    07:00 +28°C° 0 mm 6 mps 737 mmHg 63%
    08:00 +29°C° 0 mm 5 mps 738 mmHg 59%
    09:00 +29°C° 0 mm 5 mps 738 mmHg 55%
    10:00 +32°C° 0 mm 5 mps 738 mmHg 47%
    11:00 +34°C° 0 mm 4 mps 738 mmHg 40%
    12:00 +36°C° 0 mm 4 mps 737 mmHg 32%
    13:00 +37°C° 0 mm 4 mps 736 mmHg 28%
    14:00 +38°C° 0 mm 4 mps 735 mmHg 25%
    15:00 +40°C° 0 mm 4 mps 734 mmHg 21%
    16:00 +40°C° 0 mm 4 mps 734 mmHg 20%
    17:00 +40°C° 0 mm 4 mps 734 mmHg 19%
    18:00 +40°C° 0 mm 4 mps 734 mmHg 18%
    19:00 +38°C° 0 mm 4 mps 734 mmHg 19%
    20:00 +37°C° 0 mm 4 mps 735 mmHg 20%
    21:00 +37°C° 0 mm 4 mps 735 mmHg 21%
    22:00 +36°C° 0 mm 4 mps 735 mmHg 21%
    23:00 +35°C° 0 mm 4 mps 735 mmHg 22%

    23 January, Wednesday

    Time Temperature Precipitation Wind Pressure Humidity
    00:00 +35°C° 0 mm 4 mps 736 mmHg 22%
    01:00 +33°C° 0 mm 5 mps 735 mmHg 34%
    02:00 +30°C° 0 mm 6 mps 735 mmHg 47%
    03:00 +29°C° 0 mm 7 mps 735 mmHg 59%
    04:00 +28°C° 0 mm 7 mps 735 mmHg 61%
    05:00 +28°C° 0 mm 7 mps 736 mmHg 64%
    06:00 +27°C° 0 mm 6 mps 736 mmHg 66%
    07:00 +28°C° 0 mm 6 mps 737 mmHg 62%
    08:00 +28°C° 0 mm 6 mps 737 mmHg 59%
    09:00 +29°C° 0 mm 5 mps 738 mmHg 55%
    10:00 +32°C° 0 mm 5 mps 737 mmHg 47%
    11:00 +34°C° 0 mm 5 mps 737 mmHg 39%
    12:00 +36°C° 0 mm 4 mps 736 mmHg 32%
    13:00 +37°C° 0 mm 4 mps 735 mmHg 28%
    14:00 +38°C° 0 mm 4 mps 734 mmHg 25%
    15:00 +40°C° 0 mm 4 mps 734 mmHg 21%
    16:00 +40°C° 0 mm 4 mps 734 mmHg 21%
    17:00 +40°C° 0 mm 5 mps 734 mmHg 20%
    18:00 +40°C° 0 mm 5 mps 734 mmHg 19%
    19:00 +39°C° 0 mm 5 mps 734 mmHg 20%
    20:00 +37°C° 0 mm 5 mps 734 mmHg 21%
    21:00 +37°C° 0 mm 4 mps 735 mmHg 22%
    22:00 +36°C° 0 mm 5 mps 735 mmHg 24%
    23:00 +35°C° 0 mm 5 mps 735 mmHg 25%
    Show more